Location: Big Spring State Park
(32.2296°N, 101.4897°W)
Time: 11:41:30
(UTC-05:00)

ISS - Visible Passes

Search period start: 20 July 2018 00:00
Search period end: 30 July 2018 00:00
Orbit: 402 x 408 km, 51.6° (Epoch: 20 July)

Date Brightness Start Highest point End Pass type
(mag) Time Alt. Az. Time Alt. Az. Time Alt. Az.
20 Jul -0.4 04:40:07 10° N 04:41:43 13° NNE 04:43:20 10° ENE visible
20 Jul -3.8 06:15:14 10° NW 06:18:29 61° SW 06:21:43 10° SE visible
20 Jul -3.3 21:15:33 10° SSW 21:18:34 36° SE 21:21:36 10° ENE visible
20 Jul -0.7 22:52:52 10° WNW 22:55:08 17° NW 22:57:25 10° N visible
21 Jul -3.1 05:23:08 10° NW 05:26:23 56° NE 05:29:37 10° ESE visible
21 Jul -1.8 21:59:55 10° WSW 22:02:52 31° NW 22:05:50 10° NNE visible
22 Jul -1.7 04:31:18 10° NNW 04:34:11 27° NE 04:37:03 10° E visible
22 Jul -2.5 06:08:04 10° W 06:10:31 20° SW 06:13:00 10° S visible
23 Jul -0.6 21:53:24 10° WNW 21:55:15 14° NNW 21:57:08 10° N visible
